Kenai, AK

6:09 AM AKDT on September 19, 2017 (GMT -0800)
Kenai Municipal

Weather History for PAEN - January, 2013

Change the Weather History Date:

Tuesday, January 8, 2013

  Actual Average Record
Temperature  
Mean Temperature 14 °F -  
Max Temperature 24 °F 19 °F 39 °F (1955)
Min Temperature 3 °F 3 °F -38 °F (1975)
Degree Days  
Heating Degree Days 52    
Moisture  
Dew Point 13 °F    
Average Humidity 89    
Maximum Humidity 96    
Minimum Humidity 81    
Precipitation  
Precipitation 0.00 in - - ()
Sea Level Pressure  
Sea Level Pressure 29.74 in    
Wind  
Wind Speed 3 mph (NNE)    
Max Wind Speed 8 mph    
Max Gust Speed -    
Visibility 10 miles    
Events      
Averages and records for this station are not official NWS values.
T = Trace of Precipitation, MM = Missing Value Source: NWS Daily Summary

Daily Weather History Graph

Daily Weather History Graph

Search for Another Location

Airport or City:

Trip Planner

Search our weather history database for the weather conditions in past years. The results will help you decide how hot, cold, wet, or windy it might be!

Date:

Astronomy

Jan. 08, 2013 Rise Set
Actual Time 10:06 AM AKST 4:18 PM AKST
Civil Twilight 9:09 AM AKST 5:14 PM AKST
Nautical Twilight 8:13 AM AKST 6:11 PM AKST
Astronomical Twilight 7:21 AM AKST 7:02 PM AKST
Moon 6:47 AM AKST (1/8) 1:31 PM AKST (1/8)
Length of Visible Light 8h 05m
Length of Day
6h 12m
Waning Crescent, 12% of the Moon is Illuminated
Jan 8
Waning Crescent
Jan 11
New
Jan 18
First Quarter
Jan 26
Full
Feb 3
Last Quarter

Hourly Weather History & Observations

Time (AKST) Temp. Windchill Dew Point Humidity Pressure Visibility Wind Dir Wind Speed Gust Speed Precip Events Conditions
12:53 AM 23.0 °F 13.9 °F 18.0 °F 81% 29.41 in 10.0 mi North 8.1 mph - N/A   Mostly Cloudy
1:53 AM 24.1 °F 17.0 °F 19.0 °F 81% 29.43 in 10.0 mi NNE 5.8 mph - N/A   Clear
2:53 AM 21.9 °F 15.7 °F 19.0 °F 89% 29.47 in 10.0 mi North 4.6 mph - N/A   Scattered Clouds
3:53 AM 21.9 °F - 19.0 °F 89% 29.50 in 10.0 mi Calm Calm - N/A   Overcast
4:53 AM 23.0 °F 18.4 °F 19.0 °F 85% 29.52 in 10.0 mi West 3.5 mph - N/A   Mostly Cloudy
5:53 AM 21.9 °F 17.2 °F 19.0 °F 89% 29.56 in 10.0 mi WNW 3.5 mph - N/A   Overcast
6:53 AM 19.9 °F - 18.0 °F 92% 29.58 in 10.0 mi Calm Calm - N/A   Mostly Cloudy
7:53 AM 16.0 °F - 14.0 °F 92% 29.61 in 10.0 mi Calm Calm - N/A   Clear
8:53 AM 12.9 °F - 10.9 °F 92% 29.65 in 10.0 mi Calm Calm - N/A   Clear
9:53 AM 9.0 °F 2.4 °F 7.0 °F 92% 29.68 in 10.0 mi ENE 3.5 mph - N/A   Overcast
10:53 AM 19.0 °F - 16.0 °F 88% 29.71 in 10.0 mi Calm Calm - N/A   Overcast
11:53 AM 19.0 °F - 15.1 °F 85% 29.74 in 10.0 mi Calm Calm - N/A   Mostly Cloudy
12:53 PM 16.0 °F - 12.9 °F 88% 29.77 in 10.0 mi Calm Calm - N/A   Mostly Cloudy
1:53 PM 19.9 °F - 17.1 °F 89% 29.78 in 10.0 mi Calm Calm - N/A   Clear
2:53 PM 19.0 °F - 16.0 °F 88% 29.82 in 10.0 mi Calm Calm - N/A   Clear
3:53 PM 17.1 °F - 16.0 °F 96% 29.84 in 10.0 mi Calm Calm - N/A   Clear
4:53 PM 15.1 °F - 12.9 °F 91% 29.86 in 10.0 mi Calm Calm - N/A   Clear
5:53 PM 12.0 °F - 10.0 °F 92% 29.88 in 10.0 mi Calm Calm - N/A   Clear
6:53 PM 10.9 °F - 9.0 °F 92% 29.90 in 10.0 mi Calm Calm - N/A   Clear
7:53 PM 10.4 °F - 8.6 °F 92% 29.92 in 10.0 mi Calm Calm - N/A   Clear
8:41 PM 8.6 °F 0.1 °F 6.8 °F 92% 29.92 in 10.0 mi East 4.6 mph - N/A   Mostly Cloudy
8:53 PM 8.1 °F 1.4 °F 5.0 °F 87% 29.94 in 10.0 mi ESE 3.5 mph - N/A   Scattered Clouds
9:53 PM 6.1 °F - 3.9 °F 91% 29.97 in 10.0 mi Calm Calm - N/A   Clear
10:53 PM 3.9 °F - 1.0 °F 88% 29.99 in 10.0 mi Calm Calm - N/A   Clear
11:53 PM 3.9 °F - -0.0 °F 84% 30.01 in 10.0 mi Calm Calm - N/A   Partly Cloudy